Theta_e
324 334 335 337 340 346 353 353 347 350 349 346 344 341 343 342 351 364 342 342 344 342 338 338 337 340 343 342 341 344 338 334 334 335 336 334 333 333 334 338 342 341 335 328 326 324 324 324 325
329 334 334 335 341 343 351 347 351 348 345 345 345 345 344 345 347 345 340 340 344 341 342 341 337 336 339 343 343 344 334 335 335 335 334 332 332 333 336 341 340 335 332 328 325 324 326 327 328
326 332 335 334 337 339 349 346 345 347 346 346 346 346 342 344 343 345 339 345 345 341 343 341 337 336 335 337 337 335 335 335 334 333 333 333 334 334 340 340 335 333 333 328 325 324 325 327 328
334 332 334 335 333 334 344 345 344 342 344 344 344 345 344 340 343 345 340 346 346 341 342 336 335 335 335 334 334 334 335 334 332 333 333 333 332 334 338 335 330 327 326 325 324 323 323 325 327
330 332 334 335 334 334 337 341 339 341 341 342 344 350 350 345 343 340 339 346 345 342 349 334 334 335 334 333 333 335 335 334 334 333 333 332 332 333 337 335 329 326 324 324 323 323 324 326 328
332 332 333 335 336 333 334 340 338 339 340 343 344 346 351 344 340 337 340 345 344 347 349 335 334 335 334 333 335 336 336 335 335 334 333 333 332 332 336 335 329 325 323 323 324 326 327 327 328
331 332 334 334 335 336 336 334 336 337 338 343 342 351 344 346 344 340 340 343 344 350 348 343 343 338 336 335 336 336 337 337 337 336 333 333 332 331 332 334 330 326 324 324 326 328 328 329 330
330 330 331 332 334 335 333 332 335 337 339 343 341 348 343 342 344 342 341 342 344 347 348 344 345 347 344 339 336 337 338 338 338 337 334 332 331 330 329 331 331 328 326 326 327 329 330 330 331
328 328 330 331 334 335 333 332 334 336 336 340 343 345 344 344 342 340 341 341 341 343 346 343 345 345 345 345 341 337 338 339 338 337 335 332 332 338 335 336 338 337 338 332 329 329 331 332 332
326 327 328 330 333 336 333 330 330 332 337 339 341 341 347 342 340 340 339 338 338 339 345 343 342 343 344 344 347 337 342 340 339 343 342 339 337 339 343 342 339 338 336 329 329 334 335 334 334
324 325 327 328 330 332 333 330 330 331 337 336 335 340 344 343 340 338 337 337 337 337 340 343 341 342 341 342 346 346 346 345 344 343 342 343 341 339 339 339 339 338 337 336 337 337 336 336 335
323 325 326 327 328 329 331 331 330 329 335 335 340 340 343 343 340 338 337 336 336 336 337 340 342 343 341 345 345 346 342 345 344 344 343 342 343 340 338 338 339 340 339 338 337 337 336 335 334
323 323 324 325 326 327 329 330 330 329 331 337 340 345 345 342 340 337 336 335 335 336 337 337 341 342 342 343 340 341 342 343 342 343 343 343 340 338 338 337 338 338 337 335 337 336 335 331 329
323 323 324 324 325 326 327 329 330 330 330 332 335 340 344 343 340 338 337 337 336 336 337 336 341 342 342 343 344 340 342 341 340 339 340 342 341 338 339 339 340 338 336 337 336 331 329 329 328
323 323 323 323 324 324 327 329 330 331 329 331 335 336 342 344 339 339 337 338 336 336 335 337 340 343 343 343 343 343 342 341 340 338 339 342 341 338 341 339 339 337 339 336 331 328 329 329 330
325 324 323 324 325 324 325 327 329 330 331 331 332 336 338 345 343 339 338 339 339 340 337 340 338 344 343 346 345 344 342 342 339 339 340 343 341 339 341 338 338 339 336 331 328 329 329 330 327
324 324 325 325 326 325 325 327 329 330 332 332 330 331 338 342 347 342 340 340 342 342 343 342 341 345 347 347 346 345 344 341 341 340 342 343 341 340 339 339 339 338 333 329 328 328 329 326 324
323 325 326 324 326 327 327 327 330 330 331 331 330 329 331 340 346 347 342 341 343 344 346 348 347 345 347 348 346 346 344 343 343 342 343 342 340 338 338 339 337 334 330 328 329 329 326 324 324
323 324 326 327 326 326 326 327 327 328 328 329 329 331 332 332 341 345 346 344 343 345 350 349 352 350 354 352 350 348 346 344 344 343 343 341 340 338 337 337 333 331 330 331 329 327 325 324 320
324 324 325 325 325 325 325 325 326 327 327 327 328 330 331 333 336 347 349 348 348 349 350 354 356 357 351 353 352 351 348 346 345 343 342 341 340 338 336 334 332 331 332 329 325 325 323 319 316
324 325 324 325 325 326 325 325 327 327 327 328 329 331 332 335 336 351 354 353 352 353 355 357 356 359 356 356 353 351 348 346 344 343 341 339 338 336 333 332 333 330 327 325 318 318 316 317 315
323 324 324 324 324 324 325 324 330 329 329 330 329 331 334 336 342 351 355 355 353 352 351 351 352 354 359 355 353 350 349 348 346 343 341 338 335 333 332 332 328 324 322 318 317 316 315 316 317
323 323 324 325 325 326 325 326 326 329 330 330 330 332 335 335 343 352 352 353 354 354 353 354 355 353 356 355 352 350 350 347 346 343 339 336 334 333 330 324 321 319 318 317 315 317 317 316 316
324 323 324 325 325 326 325 326 326 327 330 332 333 337 339 338 338 344 351 350 351 352 353 353 354 355 354 353 351 349 348 348 344 340 338 336 333 329 323 320 318 318 317 317 316 315 315 315 313
325 325 325 328 328 328 329 326 328 330 330 330 330 331 336 338 339 343 350 349 350 350 351 353 352 351 350 350 350 348 350 346 343 339 338 335 331 324 322 320 317 317 316 316 315 315 314 313 313
326 326 326 331 330 329 331 329 328 329 329 329 329 329 329 330 332 339 349 350 349 348 350 351 350 348 347 347 347 348 346 343 341 339 336 329 325 322 321 318 317 316 316 315 315 314 314 313 313
324 324 327 330 328 328 327 329 330 331 329 329 328 329 331 333 335 336 351 349 346 348 350 350 347 345 345 345 344 343 342 342 338 333 326 324 321 321 318 317 316 316 316 315 314 314 314 314 314
322 323 324 327 330 330 327 327 334 334 333 329 329 330 331 332 340 341 350 348 346 348 349 349 346 344 342 342 341 340 338 332 328 327 323 323 322 319 317 316 316 316 316 315 314 314 314 314 314
324 324 323 327 328 330 332 332 331 333 334 334 331 329 329 331 343 343 346 347 347 349 348 347 346 344 342 340 339 336 331 328 327 325 324 323 322 320 318 317 316 315 315 315 314 314 314 314 314
326 325 328 327 330 331 333 330 331 332 329 330 328 329 328 330 338 343 346 347 346 349 347 346 345 342 340 338 335 330 328 327 325 324 324 322 321 319 318 317 316 316 315 314 313 313 313 313 313
Wind_Speed
12 10 10 16 6 8 7 8 25 17 7 7 9 10 8 18 12 5 19 13 30 27 27 23 20 18 16 16 15 13 12 12 10 9 8 9 9 8 7 7 7 7 7 8 7 7 6 5 6
11 17 19 6 10 13 5 10 17 10 11 5 5 5 11 17 16 15 14 16 29 25 26 23 21 19 18 16 15 14 13 11 9 9 8 8 8 7 7 7 6 6 6 6 6 4 3 5 5
14 14 9 6 14 9 7 8 25 2 5 3 7 4 7 7 7 13 21 22 27 24 23 24 22 20 18 17 16 14 12 10 9 8 7 6 6 6 5 5 5 6 5 4 3 2 3 4 6
10 11 8 11 20 8 9 19 21 6 5 4 9 12 13 8 5 14 17 25 23 22 21 23 23 21 19 17 16 15 13 11 9 7 6 6 5 4 4 4 4 4 3 2 1 1 3 5 7
21 9 13 18 20 15 9 18 6 5 6 13 6 19 10 13 16 17 22 24 23 23 22 23 23 21 19 17 16 15 12 10 8 7 6 6 5 5 4 4 3 3 2 2 3 4 5 6 8
11 12 15 13 12 3 4 11 6 9 8 6 7 8 17 16 17 15 19 21 22 30 22 23 23 21 19 17 16 14 12 11 9 8 6 6 6 5 4 4 4 4 4 4 4 5 7 8 10
15 14 19 19 9 18 12 4 5 9 11 12 5 16 12 4 16 15 14 15 26 28 24 21 20 20 18 17 16 15 13 10 9 8 7 7 7 6 7 7 6 6 6 6 6 7 9 11 13
13 13 22 20 14 9 3 6 6 3 6 9 3 7 3 6 17 15 15 15 20 28 24 22 20 18 17 16 16 14 13 11 10 9 8 8 8 9 8 8 8 8 7 7 8 9 11 13 16
19 12 14 21 13 8 1 8 9 3 8 7 5 14 14 21 17 15 17 14 15 20 26 23 19 18 16 15 16 16 14 13 12 11 10 9 9 10 10 8 10 10 9 9 10 11 13 15 14
16 13 20 21 10 9 8 1 4 1 5 19 28 31 19 15 14 18 16 16 17 15 27 27 25 23 19 21 20 17 15 14 13 12 10 8 11 10 6 11 8 12 13 11 12 8 9 12 12
17 17 20 23 20 10 14 10 11 3 11 11 20 29 10 15 13 16 17 18 19 17 17 24 26 25 21 19 21 14 18 12 15 12 17 8 11 14 7 11 14 11 4 7 7 8 12 8 11
17 17 19 22 23 17 12 10 13 12 7 18 26 30 16 13 12 15 16 17 18 17 14 13 19 18 16 22 18 22 19 20 20 18 15 14 7 11 8 9 12 7 9 8 8 11 10 13 18
14 15 17 18 19 18 15 16 10 15 2 15 10 18 13 12 12 15 16 18 19 21 20 16 20 17 16 8 14 13 15 17 12 13 13 12 12 11 10 9 9 9 7 4 8 9 15 18 18
14 13 13 16 20 14 17 18 16 16 11 7 6 8 14 12 12 14 12 16 18 23 23 19 22 23 18 17 10 15 9 9 15 11 13 14 13 11 8 9 9 11 10 8 11 10 16 18 14
14 14 17 15 16 18 18 16 16 14 18 9 12 10 11 14 15 13 16 15 20 22 22 22 22 25 23 21 18 12 13 14 12 13 10 12 9 9 9 6 5 6 9 9 12 13 15 15 16
12 13 15 17 20 16 18 18 14 18 19 12 12 16 14 17 17 20 18 20 22 25 27 23 22 24 24 20 19 15 15 15 13 13 14 11 9 8 7 8 8 10 5 9 13 15 12 13 17
15 13 16 16 12 13 19 15 16 20 16 11 10 12 17 16 17 25 25 22 26 25 29 27 25 27 24 21 19 18 17 17 13 12 11 11 11 10 10 8 8 8 9 9 13 10 9 14 17
15 12 10 7 8 11 10 15 12 14 18 12 12 12 12 17 20 27 30 30 27 27 30 27 25 22 28 24 21 18 16 15 14 12 10 13 12 9 9 7 9 10 8 11 9 9 14 15 17
19 13 15 15 10 8 8 12 15 17 16 16 14 13 12 13 20 28 32 32 32 32 26 31 27 27 21 23 22 18 18 16 14 10 12 13 9 8 9 7 8 7 7 8 11 12 12 14 16
12 11 14 15 13 11 12 16 18 15 18 18 16 15 14 11 7 20 24 28 29 29 30 28 25 25 28 21 21 20 19 18 15 14 12 8 8 7 7 7 6 7 8 9 12 9 10 13 15
12 13 15 16 16 13 11 17 19 19 18 16 17 10 7 6 10 18 16 20 20 19 19 21 21 18 23 17 17 15 10 12 16 12 11 9 10 9 9 6 5 7 6 9 7 7 9 10 15
15 14 16 15 9 13 17 15 14 14 18 15 9 14 11 8 9 15 14 12 10 10 11 13 15 13 17 23 16 17 15 14 13 16 11 14 12 9 8 7 5 5 6 8 7 5 10 10 13
13 16 15 13 13 16 18 12 15 13 10 11 9 10 9 9 10 14 14 16 16 16 17 15 16 17 16 19 15 18 14 15 15 17 20 13 9 9 8 6 5 4 5 8 8 6 5 9 11
13 14 12 13 13 13 18 16 15 14 7 10 5 8 10 4 4 9 19 19 18 18 17 14 13 14 15 17 12 17 18 16 19 16 13 12 11 12 10 6 4 4 5 5 4 5 6 6 10
8 10 9 12 12 13 17 15 13 12 5 1 2 4 8 11 7 11 11 6 10 13 14 16 15 16 17 17 15 19 13 15 16 15 13 15 15 12 14 7 3 4 5 5 6 6 8 10 11
11 9 8 15 14 16 20 4 4 1 6 4 4 4 5 9 5 10 18 16 15 15 17 16 19 15 15 15 16 13 13 12 12 14 13 10 7 9 8 4 4 4 6 7 7 9 10 11 8
12 13 15 13 12 14 14 20 2 9 6 3 5 10 2 8 4 4 14 13 12 16 17 21 22 18 13 14 14 14 14 13 13 13 9 7 8 4 6 5 5 6 7 8 9 11 13 14 14
14 11 11 7 11 14 13 15 10 19 14 0 1 5 5 5 8 5 13 11 11 15 18 19 24 22 17 16 17 16 13 13 15 13 10 9 7 7 4 5 7 8 9 11 12 13 15 12 15
7 11 10 10 8 10 10 4 13 9 11 7 9 9 12 4 11 7 9 15 13 17 18 15 23 21 19 17 16 15 14 12 11 10 9 8 6 5 5 6 8 10 12 13 13 13 17 22 18
13 13 10 8 9 9 11 13 14 7 7 7 11 13 13 14 2 10 10 15 14 16 18 17 16 17 18 16 15 15 14 12 11 10 9 8 6 6 6 8 10 12 13 13 12 13 16 18 18
Wind_Direction
296 280 246 258 251 229 112 273 287 106 79 63 41 46 53 52 38 77 138 153 122 128 147 151 150 147 148 153 157 158 154 148 143 137 130 125 121 116 110 104 98 94 91 92 90 85 78 68 52
289 292 268 263 254 281 60 293 354 26 45 335 145 130 84 72 84 114 127 151 125 132 141 152 155 152 149 154 158 162 159 154 147 146 143 134 130 125 122 118 111 105 103 101 92 82 64 45 29
297 273 282 248 250 255 161 102 267 1 73 351 19 51 69 96 84 127 140 143 125 136 146 159 158 156 156 157 160 161 163 158 154 153 146 138 134 133 130 122 120 120 118 109 106 83 27 8 5
288 295 233 253 272 48 136 206 218 19 82 49 57 89 85 82 125 121 143 142 132 142 151 160 160 161 162 163 164 166 168 167 163 163 158 156 155 158 153 149 146 143 141 151 191 318 342 341 336
272 261 277 272 299 355 38 15 9 348 93 36 353 106 110 91 94 124 146 149 145 145 152 162 164 165 167 167 169 171 173 172 172 177 179 179 179 186 178 175 170 177 193 240 288 312 319 320 317
284 275 271 280 300 309 81 146 319 2 17 107 51 95 95 108 118 136 154 152 156 137 146 163 168 168 169 172 174 178 182 185 185 190 190 198 201 207 204 202 203 220 234 253 282 299 306 306 307
268 278 284 292 306 289 110 24 335 0 341 44 50 77 353 49 130 149 165 154 145 135 140 154 163 171 174 178 183 186 188 193 199 204 202 212 220 223 222 223 226 236 250 267 279 289 296 301 306
264 276 285 279 270 202 100 278 118 176 326 75 316 105 191 215 150 154 161 161 152 142 140 153 163 171 177 185 190 194 196 203 208 216 217 223 229 235 238 237 238 245 256 269 276 285 294 299 303
268 273 267 275 316 330 280 245 168 65 280 131 67 72 154 180 149 154 140 171 154 155 144 155 167 176 179 184 197 198 204 209 216 223 228 237 244 247 244 232 238 243 268 276 278 291 301 303 300
246 249 261 268 285 269 287 203 348 265 338 41 7 326 119 142 155 154 159 173 162 181 158 157 171 174 186 191 196 197 206 210 222 222 228 251 238 243 165 209 239 267 271 274 270 281 307 299 301
236 248 262 274 293 306 293 324 296 274 69 100 122 272 253 147 164 158 172 176 170 179 173 163 171 170 182 189 181 182 199 207 214 214 218 229 244 235 239 253 254 253 246 277 245 294 293 291 298
249 244 263 272 290 305 300 283 299 313 115 181 170 206 221 162 174 171 174 171 169 167 170 167 151 169 198 166 170 184 194 200 203 199 207 224 244 252 253 261 229 204 251 247 279 279 295 293 297
250 250 265 265 269 278 296 283 285 285 213 173 126 166 156 178 175 174 173 169 173 164 169 185 165 183 209 210 181 195 196 188 199 191 200 205 225 232 230 240 259 275 262 292 308 294 290 299 301
288 276 264 261 274 266 258 261 248 251 250 144 156 169 166 177 181 171 176 161 168 158 157 174 168 183 195 207 182 201 200 208 198 207 203 212 214 240 240 244 250 269 288 287 279 293 291 297 307
262 273 276 262 264 264 264 264 265 261 272 199 176 188 189 169 183 171 172 163 142 147 160 175 170 186 190 204 204 191 210 217 208 214 212 191 218 234 207 241 230 272 254 269 299 291 296 299 294
266 269 265 262 227 230 253 260 272 249 257 213 215 182 193 173 179 176 180 167 162 159 168 169 184 185 190 194 202 206 211 211 217 208 206 195 207 221 226 223 246 239 271 290 292 297 301 311 323
249 250 260 246 241 208 222 247 264 265 223 237 219 231 184 188 180 180 181 178 174 179 171 182 192 180 191 191 194 204 215 211 218 210 203 197 193 207 214 241 257 257 272 283 288 300 322 326 316
250 249 261 258 164 190 239 262 243 272 271 231 225 243 267 193 184 179 181 181 183 185 182 184 194 204 191 190 196 206 218 205 212 212 203 192 182 200 214 250 237 265 276 279 285 298 313 313 308
290 311 308 314 339 322 298 292 295 293 288 278 267 243 223 260 193 179 180 179 182 186 187 190 192 201 182 177 185 212 204 202 207 191 186 163 167 196 222 229 269 278 271 286 305 300 304 312 314
281 290 277 286 282 279 291 292 287 269 261 256 261 266 254 233 195 169 169 173 176 182 189 188 194 198 203 196 194 203 208 194 194 189 167 167 194 203 207 227 239 270 270 304 294 289 311 307 313
271 270 282 292 307 308 278 270 262 257 256 259 259 256 287 293 284 147 158 163 160 174 180 185 196 198 197 202 205 207 188 181 160 160 155 192 198 205 213 233 238 282 298 295 330 316 308 308 313
272 255 255 267 292 279 281 291 276 261 221 228 231 234 210 223 161 145 143 142 162 188 199 199 195 199 193 197 199 192 192 173 178 184 190 180 193 207 219 217 234 256 272 299 305 319 326 317 314
266 286 302 310 295 282 279 274 278 290 203 201 232 237 129 163 138 143 162 170 185 197 203 192 186 197 203 201 209 179 196 196 182 173 153 170 185 201 206 212 232 259 284 287 317 314 308 303 305
259 279 275 282 268 266 262 255 272 278 307 215 165 124 115 145 165 171 161 170 183 191 187 177 180 188 199 193 198 180 200 182 152 145 153 173 190 198 197 198 221 252 278 290 296 300 301 299 301
255 266 262 259 237 245 245 237 244 265 46 71 4 50 147 171 191 160 132 131 151 188 189 175 183 191 189 190 190 190 198 159 160 159 180 194 184 189 193 186 233 246 264 274 276 282 288 278 271
244 246 256 302 304 322 320 253 250 52 334 3 360 1 307 298 314 201 155 163 189 205 190 179 167 161 178 177 171 164 153 152 160 178 200 176 186 174 174 188 220 250 259 266 272 281 287 294 277
250 263 262 269 290 291 292 297 353 311 208 270 278 262 196 243 190 329 114 149 181 190 169 152 148 161 169 164 170 178 174 173 181 181 164 167 178 204 203 194 224 243 263 269 272 276 279 269 271
265 277 264 237 258 271 273 287 31 29 3 205 302 34 340 313 107 134 139 149 184 175 166 157 161 161 183 177 171 171 175 164 162 178 169 173 179 204 176 220 240 252 265 270 272 276 290 297 280
234 225 237 272 299 308 309 347 36 42 185 249 332 343 330 335 144 159 157 148 191 166 159 166 152 157 169 175 177 173 168 167 162 168 179 186 192 205 224 244 255 264 270 274 273 275 279 272 283
243 273 273 228 248 241 257 274 301 319 315 359 339 323 311 341 174 154 159 156 188 172 166 173 166 165 175 180 174 165 171 165 172 183 191 194 204 228 244 266 274 279 282 282 285 286 283 289 291